This is the latest recevied weather packets stored in our database for station/object EA1HEH-13. If no packets are shown the sender has not sent any weather packets the latest 10 day(s).
| Time | Temp. | Humidity | Pressure | Rain* | Wind** | Luminosity | Snow |
|---|---|---|---|---|---|---|---|
| 1788134682 | 23.89° C | 22% | 940.3 hPa | - | - | - | - |
| 1788134082 | 23.89° C | 22% | 940.3 hPa | - | - | - | - |
| 1788133482 | 23.33° C | 21% | 940.2 hPa | - | - | - | - |
| 1788132882 | 23.89° C | 21% | 940.2 hPa | - | - | - | - |
| 1788132282 | 24.44° C | 21% | 940.3 hPa | - | - | - | - |
| 1788131682 | 24.44° C | 21% | 940.3 hPa | - | - | - | - |
| 1788131082 | 24.44° C | 22% | 940.3 hPa | - | - | - | - |
| 1788130482 | 24.44° C | 22% | 940.2 hPa | - | - | - | - |
| 1788129882 | 25° C | 22% | 940.1 hPa | - | - | - | - |
| 1788129282 | 24.44° C | 23% | 940.1 hPa | - | - | - | - |
| 1788128682 | 24.44° C | 23% | 939.9 hPa | - | - | - | - |
| 1788128082 | 24.44° C | 24% | 939.8 hPa | - | - | - | - |
| 1788127482 | 24.44° C | 25% | 939.7 hPa | - | - | - | - |
| 1788126882 | 24.44° C | 25% | 939.7 hPa | - | - | - | - |
| 1788126282 | 24.44° C | 26% | 939.6 hPa | - | - | - | - |
| 1788125682 | 24.44° C | 27% | 939.5 hPa | - | - | - | - |
| 1788125082 | 24.44° C | 27% | 939.4 hPa | - | - | - | - |
| 1788124482 | 24.44° C | 27% | 939.4 hPa | - | - | - | - |
| 1788123882 | 24.44° C | 28% | 939.2 hPa | - | - | - | - |
| 1788123282 | 24.44° C | 30% | 939.3 hPa | - | - | - | - |
| 1788122682 | 25° C | 31% | 939.1 hPa | - | - | - | - |
| 1788122082 | 25° C | 33% | 939 hPa | - | - | - | - |
| 1788121482 | 25° C | 33% | 938.9 hPa | - | - | - | - |
| 1788120882 | 25° C | 34% | 938.8 hPa | - | - | - | - |
| 1788120282 | 25° C | 36% | 938.7 hPa | - | - | - | - |
* Rain since midnight (hover to see other rain measurements)
** Current wind speed in m/s (hover to see current wind gust speed)